Location: Bats
(43.6587°N, 0.4584°W)
Time: 08:59:37
(UTC+00:00)

SJ-6F - Pass Details

Date: 12 January 2026
Orbit: 541 x 570 km, 97.9° (Epoch: 18 February)

Event Time Altitude Azimuth Distance (km) Brightness Sun altitude
Rises 18:00:54 0° 168° (SSE) 2,763 8.0 -13.1°
Reaches altitude 10° 18:03:02 10° 169° (S) 1,870 7.1 -13.4°
Maximum altitude 18:07:06 81° 256° (WSW) 584 4.5 -14.1°
Drops below altitude 10° 18:11:11 10° 345° (NNW) 1,880 7.0 -14.9°
Sets 18:13:20 0° 347° (NNW) 2,779 7.9 -15.2°
